| time (UTC) | temp F | wind direction | speed knots | gust knots | rain 1hr in | rain 24hr in | rain mn in | humidity % | barometer mb |
| 20260502182509 | 73 | 28 | 1.7 | 3.5 | 0.00 | 0.00 | 0.00 | 46 | 1020.3 |
| 20260502182006 | 73 | 91 | 2.6 | 5.2 | 0.00 | 0.00 | 0.00 | 45 | 1020.2 |
| 20260502181504 | 73 | 23 | 0.9 | 3.5 | 0.00 | 0.00 | 0.00 | 44 | 1020.4 |
| 20260502181002 | 73 | 284 | 2.6 | 5.2 | 0.00 | 0.00 | 0.00 | 46 | 1020.4 |
| 20260502180459 | 72 | 359 | 0.9 | 5.2 | 0.00 | 0.00 | 0.00 | 48 | 1020.6 |
| 20260502170418 | 71 | 355 | 1.7 | 7.0 | 0.00 | 0.00 | 0.00 | 51 | 1020.5 |
| 20260502163900 | 70 | 56 | 0.9 | 5.2 | 0.00 | 0.00 | 0.00 | 58 | 1020.6 |
| 20260502163357 | 69 | 19 | 0.9 | 3.5 | 0.00 | 0.00 | 0.00 | 57 | 1020.7 |
| 20260502162855 | 68 | 28 | 0.9 | 6.1 | 0.00 | 0.00 | 0.00 | 58 | 1020.6 |
| 20260502162351 | 68 | 27 | 0.9 | 6.1 | 0.00 | 0.00 | 0.00 | 60 | 1020.7 |
| 20260502161849 | 68 | 89 | 0.9 | 5.2 | 0.00 | 0.00 | 0.00 | 60 | 1020.5 |
| 20260502161344 | 69 | 336 | 3.5 | 6.1 | 0.00 | 0.00 | 0.00 | 60 | 1020.5 |
| 20260502160843 | 68 | 353 | 0.9 | 2.6 | 0.00 | 0.00 | 0.00 | 63 | 1020.6 |
| 20260502160341 | 67 | 333 | 0.0 | 2.6 | 0.00 | 0.00 | 0.00 | 64 | 1020.2 |
| 20260502152316 | 65 | 67 | 1.7 | 2.6 | 0.00 | 0.00 | 0.00 | 72 | 1020.6 |
| 20260502151814 | 64 | 357 | 0.0 | 2.6 | 0.00 | 0.00 | 0.00 | 72 | 1020.4 |
| 20260502151310 | 64 | 349 | 0.9 | 3.5 | 0.00 | 0.00 | 0.00 | 72 | 1020.5 |
| 20260502150808 | 64 | 303 | 0.9 | 2.6 | 0.00 | 0.00 | 0.00 | 73 | 1020.7 |
| 20260502150304 | 64 | 1 | 1.7 | 2.6 | 0.00 | 0.00 | 0.00 | 72 | 1020.6 |
| 20260502130653 | 57 | 321 | 0.0 | 2.6 | 0.00 | 0.00 | 0.00 | 89 | 1019.4 |
| 20260502130150 | 57 | 348 | 0.0 | 0.9 | 0.00 | 0.00 | 0.00 | 89 | 1019.2 |
| 20260502123636 | 56 | 18 | 0.9 | 0.9 | 0.00 | 0.00 | 0.00 | 90 | 1018.8 |
| 20260502123133 | 55 | 351 | 0.9 | 1.7 | 0.00 | 0.00 | 0.00 | 90 | 1018.7 |
| 20260502122629 | 55 | 66 | 0.9 | 1.7 | 0.00 | 0.00 | 0.00 | 91 | 1018.7 |
| 20260502122126 | 55 | 345 | 0.9 | 1.7 | 0.00 | 0.00 | 0.00 | 91 | 1018.5 |
| 20260502121624 | 55 | 339 | 0.0 | 0.9 | 0.00 | 0.00 | 0.00 | 91 | 1018.6 |
| 20260502121121 | 55 | 53 | 0.9 | 5.2 | 0.00 | 0.00 | 0.00 | 91 | 1018.5 |
| 20260502120617 | 55 | 341 | 0.0 | 2.6 | 0.00 | 0.00 | 0.00 | 91 | 1018.4 |
| 20260502120114 | 55 | 17 | 0.9 | 0.9 | 0.00 | 0.00 | 0.00 | 91 | 1018.3 |
| 20260502115613 | 54 | 7 | 0.0 | 1.7 | 0.00 | 0.00 | 0.00 | 91 | 1018.4 |
| 20260502115108 | 54 | 41 | 0.9 | 0.9 | 0.00 | 0.00 | 0.00 | 91 | 1018.2 |
| 20260502114604 | 54 | 336 | 0.9 | 3.5 | 0.00 | 0.00 | 0.00 | 91 | 1018.2 |
| 20260502114101 | 54 | 342 | 0.0 | 1.7 | 0.00 | 0.00 | 0.00 | 91 | 1018.2 |
| 20260502113559 | 54 | 60 | 1.7 | 1.7 | 0.00 | 0.00 | 0.00 | 91 | 1018.0 |
| 20260502113057 | 54 | 47 | 0.9 | 1.7 | 0.00 | 0.00 | 0.00 | 91 | 1018.2 |
| 20260502112555 | 54 | 354 | 0.9 | 2.6 | 0.00 | 0.00 | 0.00 | 91 | 1018.1 |
| 20260502112052 | 54 | 319 | 0.0 | 0.9 | 0.00 | 0.00 | 0.00 | 91 | 1018.2 |
| 20260502111549 | 54 | 345 | 0.0 | 0.0 | 0.00 | 0.00 | 0.00 | 91 | 1018.0 |
| 20260502111047 | 54 | 51 | 0.9 | 2.6 | 0.00 | 0.00 | 0.00 | 91 | 1018.0 |
| 20260502110544 | 54 | 313 | 0.0 | 1.7 | 0.00 | 0.00 | 0.00 | 91 | 1018.0 |
| 20260502110042 | 54 | 329 | 0.0 | 0.9 | 0.00 | 0.00 | 0.00 | 91 | 1017.8 |
| 20260502105539 | 54 | 334 | 0.0 | 1.7 | 0.00 | 0.00 | 0.00 | 91 | 1017.6 |
| 20260502105037 | 54 | 346 | 0.0 | 0.9 | 0.00 | 0.00 | 0.00 | 90 | 1017.6 |
| 20260502104533 | 54 | 316 | 0.0 | 0.0 | 0.00 | 0.00 | 0.00 | 89 | 1017.6 |
| 20260502104031 | 55 | 340 | 0.0 | 0.0 | 0.00 | 0.00 | 0.00 | 87 | 1017.3 |
| 20260502103528 | 55 | 330 | 0.0 | 0.9 | 0.00 | 0.00 | 0.00 | 86 | 1017.4 |
| 20260502103026 | 55 | 335 | 0.0 | 0.9 | 0.00 | 0.00 | 0.00 | 85 | 1017.2 |
| 20260502102522 | 55 | 344 | 0.0 | 2.6 | 0.00 | 0.00 | 0.00 | 85 | 1017.2 |
| 20260502102020 | 55 | 337 | 0.0 | 1.7 | 0.00 | 0.00 | 0.00 | 85 | 1017.2 |
| 20260502101517 | 55 | 14 | 0.9 | 0.9 | 0.00 | 0.00 | 0.00 | 85 | 1017.1 |
| 20260502101016 | 55 | 14 | 0.9 | 2.6 | 0.00 | 0.00 | 0.00 | 85 | 1016.7 |
| 20260502100514 | 55 | 66 | 0.9 | 1.7 | 0.00 | 0.00 | 0.00 | 86 | 1016.8 |
| 20260502091448 | 55 | 58 | 0.0 | 2.6 | 0.00 | 0.00 | 0.00 | 87 | 1016.1 |
| 20260502090945 | 55 | 35 | 0.0 | 1.7 | 0.00 | 0.00 | 0.00 | 86 | 1016.2 |
| 20260502090442 | 55 | 30 | 0.0 | 2.6 | 0.00 | 0.00 | 0.00 | 86 | 1016.1 |
| 20260502071337 | 57 | 45 | 1.7 | 1.7 | 0.00 | 0.00 | 0.00 | 94 | 1016.0 |
| 20260502070835 | 57 | 1 | 0.0 | 1.7 | 0.00 | 0.00 | 0.00 | 94 | 1015.9 |
| 20260502070332 | 57 | 0 | 0.9 | 2.6 | 0.00 | 0.00 | 0.00 | 94 | 1015.9 |
| 20260502065831 | 57 | 69 | 0.9 | 1.7 | 0.00 | 0.00 | 0.00 | 95 | 1015.8 |
| 20260502065329 | 57 | 28 | 0.0 | 0.0 | 0.00 | 0.00 | 0.00 | 95 | 1015.7 |
| 20260502064826 | 57 | 46 | 0.0 | 2.6 | 0.00 | 0.00 | 0.00 | 95 | 1015.8 |
| 20260502064324 | 57 | 312 | 0.9 | 1.7 | 0.00 | 0.00 | 0.00 | 95 | 1015.8 |
| 20260502063821 | 57 | 329 | 0.9 | 2.6 | 0.00 | 0.00 | 0.00 | 95 | 1015.8 |
| 20260502063319 | 57 | 33 | 0.9 | 2.6 | 0.00 | 0.00 | 0.00 | 95 | 1015.4 |
| 20260502062816 | 57 | 54 | 0.9 | 1.7 | 0.00 | 0.00 | 0.00 | 95 | 1015.5 |
| 20260502062313 | 57 | 20 | 0.0 | 1.7 | 0.00 | 0.00 | 0.00 | 96 | 1015.6 |
| 20260502061812 | 57 | 35 | 0.9 | 5.2 | 0.00 | 0.00 | 0.00 | 96 | 1015.6 |
| 20260502061310 | 57 | 61 | 1.7 | 1.7 | 0.00 | 0.00 | 0.00 | 96 | 1015.5 |
| 20260502060805 | 57 | 304 | 0.9 | 1.7 | 0.00 | 0.00 | 0.00 | 96 | 1015.3 |
| 20260502060300 | 56 | 1 | 0.0 | 1.7 | 0.00 | 0.00 | 0.00 | 96 | 1015.7 |
| 20260502055759 | 56 | 49 | 0.9 | 2.6 | 0.00 | 0.00 | 0.00 | 96 | 1015.6 |
| 20260502055256 | 56 | 61 | 0.9 | 1.7 | 0.00 | 0.00 | 0.00 | 96 | 1015.6 |
| 20260502054755 | 56 | 332 | 1.7 | 3.5 | 0.00 | 0.00 | 0.00 | 96 | 1015.6 |
| 20260502054252 | 56 | 1 | 0.9 | 2.6 | 0.00 | 0.00 | 0.00 | 96 | 1015.7 |
| 20260502053750 | 56 | 352 | 0.0 | 1.7 | 0.00 | 0.00 | 0.00 | 96 | 1015.8 |
| 20260502053247 | 56 | 59 | 0.9 | 1.7 | 0.00 | 0.00 | 0.00 | 96 | 1015.9 |
| 20260502052745 | 56 | 354 | 1.7 | 1.7 | 0.00 | 0.00 | 0.00 | 96 | 1016.0 |
| 20260502052243 | 56 | 35 | 1.7 | 1.7 | 0.00 | 0.00 | 0.00 | 96 | 1015.8 |
| 20260502051740 | 56 | 255 | 1.7 | 3.5 | 0.00 | 0.00 | 0.00 | 96 | 1015.8 |
| 20260502051238 | 56 | 68 | 0.9 | 2.6 | 0.00 | 0.00 | 0.00 | 96 | 1015.8 |
| 20260502050734 | 56 | 50 | 0.9 | 3.5 | 0.00 | 0.00 | 0.00 | 97 | 1015.7 |
| 20260502050230 | 56 | 77 | 3.5 | 5.2 | 0.00 | 0.00 | 0.00 | 97 | 1015.8 |
| 20260502045728 | 56 | 12 | 0.9 | 5.2 | 0.00 | 3.90 | 3.90 | 97 | 1015.9 |
| 20260502045225 | 56 | 333 | 1.7 | 3.5 | 0.00 | 3.90 | 3.90 | 97 | 1016.0 |
| 20260502044722 | 56 | 29 | 0.9 | 2.6 | 0.00 | 3.90 | 3.90 | 97 | 1015.7 |
| 20260502044218 | 56 | 300 | 2.6 | 5.2 | 0.00 | 3.90 | 3.90 | 97 | 1015.9 |
| 20260502043715 | 56 | 40 | 1.7 | 2.6 | 0.00 | 3.90 | 3.90 | 97 | 1015.9 |
| 20260502043213 | 56 | 3 | 1.7 | 3.5 | 0.00 | 3.90 | 3.90 | 97 | 1015.7 |
| 20260502042712 | 56 | 8 | 0.9 | 2.6 | 0.00 | 3.90 | 3.90 | 97 | 1015.8 |
| 20260502042210 | 56 | 11 | 0.0 | 5.2 | 0.00 | 3.90 | 3.90 | 97 | 1015.7 |
| 20260502041707 | 56 | 27 | 0.9 | 5.2 | 0.00 | 3.90 | 3.90 | 97 | 1015.8 |
| 20260502041204 | 56 | 47 | 1.7 | 3.5 | 0.00 | 3.90 | 3.90 | 97 | 1015.7 |
| 20260502040701 | 56 | 100 | 4.3 | 7.0 | 0.00 | 3.90 | 3.90 | 97 | 1015.8 |
| 20260502040158 | 56 | 348 | 0.9 | 3.5 | 0.07 | 3.90 | 3.90 | 97 | 1015.4 |
| 20260502035654 | 56 | 44 | 0.9 | 2.6 | 0.12 | 3.90 | 3.90 | 97 | 1015.2 |
| 20260502035151 | 56 | 9 | 0.9 | 3.5 | 0.00 | 3.88 | 3.88 | 97 | 1015.1 |
| 20260502034649 | 57 | 9 | 2.6 | 3.5 | 0.00 | 3.88 | 3.88 | 97 | 1014.9 |
| 20260502034147 | 57 | 3 | 0.0 | 2.6 | 0.00 | 3.88 | 3.88 | 98 | 1015.3 |
| 20260502033645 | 57 | 290 | 0.9 | 2.6 | 0.00 | 3.88 | 3.88 | 97 | 1015.0 |
| 20260502033142 | 57 | 340 | 0.0 | 1.7 | 0.00 | 3.88 | 3.88 | 97 | 1014.7 |
| 20260502032638 | 57 | 90 | 1.7 | 3.5 | 0.00 | 3.88 | 3.88 | 98 | 1014.3 |
| 20260502032135 | 57 | 317 | 0.0 | 3.5 | 0.00 | 3.88 | 3.88 | 98 | 1014.5 |
| 20260502031633 | 57 | 317 | 0.0 | 2.6 | 0.00 | 3.88 | 3.88 | 97 | 1014.4 |
| 20260502031130 | 57 | 316 | 0.9 | 2.6 | 0.07 | 3.88 | 3.88 | 97 | 1013.9 |
| 20260502030629 | 57 | 355 | 0.9 | 2.6 | 0.07 | 3.88 | 3.88 | 97 | 1013.6 |
| 20260502030127 | 57 | 27 | 0.0 | 1.7 | 0.07 | 3.87 | 3.87 | 98 | 1013.8 |
| 20260502025623 | 57 | 55 | 0.9 | 1.7 | 0.07 | 3.87 | 3.87 | 98 | 1013.6 |
| 20260502025121 | 57 | 325 | 0.9 | 3.5 | 0.00 | 3.86 | 3.86 | 98 | 1014.2 |
| 20260502024619 | 58 | 347 | 1.7 | 1.7 | 0.05 | 3.86 | 3.86 | 98 | 1014.0 |
| 20260502024117 | 58 | 31 | 0.9 | 1.7 | 0.05 | 3.86 | 3.86 | 98 | 1014.1 |
| 20260502023615 | 58 | 353 | 0.9 | 5.2 | 0.07 | 3.85 | 3.85 | 98 | 1014.1 |
| 20260502023112 | 58 | 23 | 0.9 | 2.6 | 0.00 | 3.84 | 3.84 | 98 | 1013.9 |
| 20260502022608 | 58 | 52 | 0.9 | 2.6 | 0.00 | 3.84 | 3.84 | 98 | 1014.1 |
| 20260502022106 | 58 | 326 | 1.7 | 2.6 | 0.05 | 3.84 | 3.84 | 98 | 1014.0 |
| 20260502021603 | 59 | 352 | 1.7 | 2.6 | 0.05 | 3.84 | 3.84 | 98 | 1014.0 |
| 20260502021059 | 59 | 340 | 0.0 | 0.9 | 0.07 | 3.83 | 3.83 | 98 | 1014.0 |
| 20260502020557 | 59 | 312 | 0.0 | 0.9 | 0.07 | 3.83 | 3.83 | 98 | 1013.7 |
| 20260502020054 | 59 | 359 | 1.7 | 2.6 | 0.00 | 3.82 | 3.82 | 98 | 1013.8 |
| 20260502015552 | 59 | 291 | 0.9 | 2.6 | 0.05 | 3.82 | 3.82 | 98 | 1013.7 |
| 20260502015048 | 59 | 342 | 0.0 | 0.9 | 0.12 | 3.82 | 3.82 | 98 | 1013.4 |
| 20260502014545 | 59 | 359 | 0.9 | 5.2 | 0.07 | 3.81 | 3.81 | 98 | 1013.3 |
| 20260502014042 | 59 | 358 | 0.0 | 2.6 | 0.05 | 3.80 | 3.80 | 98 | 1013.2 |
| 20260502013537 | 59 | 341 | 0.0 | 6.1 | 0.12 | 3.80 | 3.80 | 98 | 1013.1 |
| 20260502013034 | 59 | 303 | 1.7 | 5.2 | 0.07 | 3.79 | 3.79 | 98 | 1012.8 |
| 20260502012531 | 59 | 327 | 3.5 | 3.5 | 0.12 | 3.78 | 3.78 | 98 | 1012.8 |
| 20260502012029 | 59 | 342 | 1.7 | 2.6 | 0.12 | 3.78 | 3.78 | 98 | 1012.7 |
| 20260502011526 | 59 | 71 | 1.7 | 2.6 | 0.00 | 3.76 | 3.76 | 98 | 1012.5 |
| 20260502011022 | 59 | 341 | 1.7 | 2.6 | 0.07 | 3.76 | 3.76 | 98 | 1012.2 |
| 20260502010520 | 59 | 324 | 0.0 | 0.9 | 0.07 | 3.76 | 3.76 | 98 | 1011.8 |
| 20260502010015 | 59 | 352 | 1.7 | 1.7 | 0.00 | 3.75 | 3.75 | 98 | 1011.6 |
| 20260502005514 | 59 | 9 | 0.0 | 2.6 | 0.05 | 3.75 | 3.75 | 98 | 1011.1 |
| 20260502005011 | 59 | 73 | 1.7 | 1.7 | 0.17 | 3.75 | 3.75 | 98 | 1010.9 |
| 20260502004507 | 59 | 51 | 1.7 | 1.7 | 0.24 | 3.74 | 3.74 | 98 | 1011.3 |
| 20260502004004 | 59 | 352 | 0.9 | 1.7 | 0.35 | 3.72 | 3.72 | 97 | 1011.5 |
| 20260502003501 | 59 | 310 | 1.7 | 2.6 | 0.54 | 3.70 | 3.70 | 97 | 1011.5 |
| 20260502002957 | 59 | 358 | 0.9 | 1.7 | 0.54 | 3.66 | 3.66 | 97 | 1011.9 |
| 20260502002455 | 59 | 317 | 0.9 | 2.6 | 0.28 | 3.60 | 3.60 | 98 | 1011.8 |
| 20260502001952 | 59 | 343 | 0.0 | 1.7 | 0.28 | 3.56 | 3.56 | 98 | 1011.6 |
| 20260502001449 | 59 | 48 | 0.0 | 2.6 | 0.61 | 3.55 | 3.55 | 98 | 1011.4 |
| 20260502000947 | 59 | 340 | 0.0 | 3.5 | 0.42 | 3.51 | 3.51 | 98 | 1011.1 |
| 20260502000446 | 59 | 15 | 0.9 | 3.5 | 0.12 | 3.45 | 3.45 | 97 | 1010.8 |
| 20260501235941 | 60 | 11 | 0.0 | 2.6 | 0.07 | 3.44 | 3.44 | 97 | 1011.1 |
| 20260501235437 | 60 | 8 | 0.9 | 1.7 | 0.00 | 3.43 | 3.43 | 97 | 1010.9 |
| 20260501234932 | 60 | 71 | 0.9 | 3.5 | 0.05 | 3.43 | 3.43 | 97 | 1010.9 |
| 20260501234429 | 60 | 26 | 0.9 | 6.1 | 0.05 | 3.43 | 3.43 | 97 | 1010.9 |
| 20260501233928 | 60 | 3 | 3.5 | 5.2 | 0.07 | 3.42 | 3.42 | 97 | 1011.1 |
| 20260501233425 | 60 | 53 | 1.7 | 3.5 | 0.07 | 3.42 | 3.42 | 98 | 1010.5 |
| 20260501232920 | 60 | 299 | 0.9 | 1.7 | 0.00 | 3.41 | 3.41 | 98 | 1010.4 |
| 20260501232418 | 60 | 49 | 0.9 | 2.6 | 0.05 | 3.41 | 3.41 | 98 | 1010.2 |
| 20260501231915 | 60 | 14 | 1.7 | 3.5 | 0.12 | 3.41 | 3.41 | 98 | 1010.5 |
| 20260501231413 | 60 | 341 | 1.7 | 2.6 | 0.07 | 3.40 | 3.40 | 98 | 1010.1 |
| 20260501230911 | 60 | 78 | 1.7 | 7.0 | 0.00 | 3.39 | 3.39 | 98 | 1010.2 |
| 20260501230410 | 61 | 71 | 0.9 | 5.2 | 0.05 | 3.39 | 3.39 | 98 | 1010.3 |
| 20260501225907 | 61 | 322 | 0.9 | 1.7 | 0.00 | 3.38 | 3.38 | 98 | 1010.8 |
| 20260501225404 | 61 | 337 | 0.9 | 2.6 | 0.00 | 3.38 | 3.38 | 98 | 1010.7 |
| 20260501224900 | 61 | 71 | 0.9 | 3.5 | 0.00 | 3.38 | 3.38 | 98 | 1010.6 |
| 20260501224358 | 61 | 71 | 0.9 | 1.7 | 0.00 | 3.38 | 3.38 | 98 | 1010.8 |
| 20260501223854 | 61 | 24 | 0.0 | 2.6 | 0.07 | 3.38 | 3.38 | 98 | 1010.4 |
| 20260501223350 | 61 | 25 | 0.9 | 2.6 | 0.14 | 3.38 | 3.38 | 98 | 1010.1 |
| 20260501222846 | 61 | 330 | 1.7 | 3.5 | 0.12 | 3.37 | 3.37 | 98 | 1010.4 |
| 20260501222344 | 61 | 11 | 0.9 | 5.2 | 0.05 | 3.36 | 3.36 | 98 | 1010.5 |
| 20260501221840 | 61 | 61 | 3.5 | 6.1 | 0.00 | 3.35 | 3.35 | 98 | 1011.0 |
| 20260501221337 | 61 | 57 | 0.9 | 1.7 | 0.07 | 3.35 | 3.35 | 98 | 1011.3 |
| 20260501220836 | 61 | 342 | 0.0 | 1.7 | 0.19 | 3.35 | 3.35 | 98 | 1011.5 |
| 20260501220333 | 61 | 47 | 0.9 | 2.6 | 0.12 | 3.34 | 3.34 | 98 | 1011.3 |
| 20260501215829 | 62 | 357 | 0.0 | 0.9 | 0.00 | 3.32 | 3.32 | 98 | 1011.6 |
| 20260501215325 | 62 | 22 | 0.9 | 0.9 | 0.05 | 3.32 | 3.32 | 98 | 1011.3 |
| 20260501214821 | 62 | 352 | 0.0 | 1.7 | 0.12 | 3.32 | 3.32 | 98 | 1011.1 |
| 20260501214316 | 62 | 25 | 0.9 | 1.7 | 0.24 | 3.31 | 3.31 | 98 | 1010.8 |
| 20260501213813 | 62 | 314 | 1.7 | 2.6 | 0.26 | 3.29 | 3.29 | 98 | 1010.1 |
| 20260501213309 | 62 | 6 | 1.7 | 1.7 | 0.26 | 3.27 | 3.27 | 98 | 1009.7 |
| 20260501212805 | 62 | 59 | 0.9 | 3.5 | 0.47 | 3.25 | 3.25 | 98 | 1009.9 |
| 20260501212301 | 62 | 72 | 0.0 | 1.7 | 0.47 | 3.24 | 3.24 | 98 | 1010.1 |
| 20260501211759 | 62 | 89 | 1.7 | 2.6 | 0.31 | 3.18 | 3.18 | 98 | 1009.9 |
| 20260501211256 | 62 | 6 | 2.6 | 3.5 | 0.42 | 3.15 | 3.15 | 98 | 1010.6 |
| 20260501210753 | 62 | 300 | 1.7 | 3.5 | 0.52 | 3.12 | 3.12 | 98 | 1010.2 |
| 20260501210249 | 62 | 49 | 0.9 | 5.2 | 0.42 | 3.07 | 3.07 | 98 | 1010.4 |
| 20260501205746 | 62 | 55 | 1.7 | 2.6 | 0.31 | 3.03 | 3.03 | 98 | 1010.6 |
| 20260501205243 | 62 | 24 | 1.7 | 2.6 | 0.24 | 3.00 | 3.00 | 98 | 1010.6 |
| 20260501204740 | 62 | 5 | 0.9 | 1.7 | 0.12 | 2.97 | 2.97 | 98 | 1010.4 |
| 20260501204237 | 62 | 39 | 0.9 | 1.7 | 0.07 | 2.96 | 2.96 | 98 | 1009.8 |
| 20260501203733 | 62 | 20 | 0.9 | 2.6 | 0.05 | 2.95 | 2.95 | 98 | 1009.7 |
| 20260501203230 | 62 | 77 | 2.6 | 5.2 | 0.28 | 2.95 | 2.95 | 98 | 1009.5 |
| 20260501202727 | 63 | 78 | 1.7 | 2.6 | 0.90 | 2.94 | 2.94 | 98 | 1009.3 |
| 20260501202224 | 63 | 70 | 1.7 | 6.1 | 1.39 | 2.90 | 2.90 | 98 | 1009.1 |
| 20260501201721 | 63 | 79 | 1.7 | 3.5 | 1.25 | 2.78 | 2.78 | 98 | 1008.7 |
| 20260501201217 | 63 | 20 | 0.9 | 0.9 | 0.71 | 2.67 | 2.67 | 98 | 1009.7 |
| 20260501200714 | 63 | 346 | 0.9 | 1.7 | 0.31 | 2.57 | 2.57 | 98 | 1009.3 |
| 20260501200212 | 63 | 27 | 0.9 | 1.7 | 0.35 | 2.54 | 2.54 | 98 | 1009.8 |
| 20260501195709 | 63 | 53 | 0.9 | 1.7 | 0.61 | 2.51 | 2.51 | 98 | 1009.6 |
| 20260501195205 | 63 | 51 | 0.0 | 0.9 | 1.49 | 2.47 | 2.47 | 98 | 1009.4 |
| 20260501194700 | 62 | 86 | 3.5 | 3.5 | 1.98 | 2.38 | 2.38 | 97 | 1009.0 |
| 20260501194155 | 62 | 74 | 1.7 | 2.6 | 1.13 | 2.20 | 2.20 | 97 | 1008.8 |
| 20260501193653 | 62 | 83 | 0.0 | 3.5 | 0.12 | 2.03 | 2.03 | 97 | 1009.6 |
| 20260501193152 | 62 | 47 | 0.9 | 3.5 | 0.07 | 2.01 | 2.01 | 97 | 1008.9 |
| 20260501192649 | 62 | 54 | 0.9 | 1.7 | 0.14 | 2.01 | 2.01 | 97 | 1008.5 |
| 20260501192146 | 63 | 52 | 1.7 | 5.2 | 0.24 | 2.00 | 2.00 | 97 | 1008.2 |
| 20260501191643 | 63 | 79 | 2.6 | 7.0 | 0.28 | 1.99 | 1.99 | 97 | 1008.9 |
| 20260501191141 | 63 | 64 | 1.7 | 5.2 | 0.05 | 1.95 | 1.95 | 97 | 1010.4 |
| 20260501190637 | 63 | 285 | 0.0 | 2.6 | 0.07 | 1.94 | 1.94 | 98 | 1011.4 |
| 20260501190132 | 63 | 254 | 1.7 | 1.7 | 0.12 | 1.94 | 1.94 | 98 | 1010.7 |
| 20260501185628 | 63 | 119 | 3.5 | 3.5 | 0.12 | 1.93 | 1.93 | 97 | 1009.2 |
| 20260501185124 | 63 | 57 | 2.6 | 2.6 | 0.12 | 1.92 | 1.92 | 98 | 1009.1 |
| 20260501184620 | 63 | 69 | 1.7 | 1.7 | 0.05 | 1.91 | 1.91 | 98 | 1010.3 |
| 20260501184115 | 63 | 255 | 1.7 | 3.5 | 0.00 | 1.90 | 1.90 | 98 | 1010.6 |
| 20260501183612 | 63 | 316 | 0.0 | 2.6 | 0.00 | 1.90 | 1.90 | 98 | 1009.8 |
| 20260501183109 | 63 | 57 | 0.9 | 3.5 | 0.00 | 1.90 | 1.90 | 98 | 1008.5 |